Date String (YYYY-MM-DD hh:mm:ss) UTC,Instrument flags,absolute air pressure of the measurement (hPa),sample flow rate (lpm),inlet stack bypass flow (lpm),air temperature of the measurement (°C),ambient temperature measured by the external sensor (°C),aerosol sample conditioner tube jacket temperature (°C),OPC LED temperature (°C),internal box temperature (°C),relative humidity of the measurement (%),span deviation,mass concentration of particles derived from Lorenz-Mie calculation of OPC scattering (μg/m³),mass concentration of particles derived from Lorenz-Mie calculation of OPC scattering (μg/m³),mass concentration of particles derived from Lorenz-Mie calculation of OPC scattering (μg/m³)
DateTimeUTC,F1_M11,P_M11,Q1_M11,Q2_M11,T1_M11,T2_M11,T3_M11,T4_M11,T5_M11,U1_M11,ZSPAN_M11,X0_M11,X2_M11,X1_M11
2023-06-22 07:00:00,SystemResetWarning,0833.2,4.98,000.00,031.1,028.0,000.0,039.5,031.8,35.1,0000.8,0019.86,0009.25,0007.33
2023-06-22 07:01:00,SystemResetWarning,0833.3,5.03,000.00,031.3,028.1,000.0,039.5,031.9,34.8,0000.5,0019.69,0009.21,0007.31
2023-06-22 07:02:00,SystemResetWarning,0833.4,4.98,000.00,031.4,028.2,000.0,039.5,031.9,34.5,0000.5,0019.53,0009.16,0007.30
2023-06-22 07:03:00,SystemResetWarning,0833.5,5.02,000.00,031.5,028.3,000.0,039.5,032.0,34.4,0000.5,0019.41,0009.16,0007.28
2023-06-22 07:04:00,SystemResetWarning,0833.4,4.99,000.00,031.5,028.4,000.0,039.5,032.0,34.2,0000.6,0019.98,0009.17,0007.26
2023-06-22 07:05:00,SystemResetWarning,0833.5,5.00,000.00,031.5,028.5,000.0,039.6,032.0,34.0,0000.9,0019.04,0009.14,0007.22
2023-06-22 07:06:00,SystemResetWarning,0833.6,5.00,000.00,031.5,028.6,000.0,039.6,032.0,34.1,0000.6,0018.19,0009.17,0007.20
2023-06-22 07:07:00,SystemResetWarning,0833.7,5.00,000.00,031.6,028.6,000.0,039.6,032.0,34.1,0000.8,0018.38,0009.09,0007.14
2023-06-22 07:08:00,SystemResetWarning,0833.6,5.00,000.00,031.6,028.7,000.0,039.7,032.0,33.8,0000.9,0018.59,0009.09,0007.09
2023-06-22 07:09:00,SystemResetWarning,0833.7,5.00,000.00,031.5,028.7,000.0,039.7,032.1,33.6,0000.8,0018.35,0009.01,0007.05
2023-06-22 07:10:00,SystemResetWarning,0833.6,5.00,000.00,031.5,028.7,000.0,039.7,032.1,33.5,0001.0,0017.85,0009.01,0007.02
2023-06-22 07:11:00,SystemResetWarning,0833.7,5.00,000.00,031.5,028.8,000.0,039.7,032.1,33.5,0001.4,0017.35,0008.91,0006.94
2023-06-22 07:12:00,SystemResetWarning,0833.7,5.00,000.00,031.5,028.8,000.0,039.8,032.1,33.4,0002.0,0017.13,0008.71,0006.82
2023-06-22 07:13:00,SystemResetWarning,0833.7,5.00,000.00,031.5,028.8,000.0,039.8,032.1,33.2,0002.2,0017.14,0008.62,0006.72
2023-06-22 07:14:00,SystemResetWarning,0833.6,5.00,000.00,031.5,028.8,000.0,039.8,032.1,33.1,0002.4,0017.02,0008.53,0006.65
2023-06-22 07:15:00,SystemResetWarning,0833.7,5.00,000.00,031.5,028.8,000.0,039.8,032.2,33.0,0002.4,0016.12,0008.39,0006.54
2023-06-22 07:16:00,SystemResetWarning,0833.7,5.00,000.00,031.5,028.3,000.0,039.8,032.2,33.2,0002.2,0016.24,0008.23,0006.44
2023-06-22 07:17:00,SystemResetWarning,0833.7,5.00,000.00,031.5,026.2,000.0,039.7,032.0,33.0,0002.5,0015.51,0007.99,0006.34
2023-06-22 07:18:00,SystemResetWarning,0833.6,5.00,000.00,031.4,025.3,000.0,039.6,032.0,33.1,0002.5,0014.71,0007.90,0006.27
2023-06-22 07:19:00,SystemResetWarning,0833.7,5.01,000.00,031.3,025.3,000.0,039.6,031.6,33.1,0002.3,0014.89,0007.80,0006.21
2023-06-22 07:20:00,SystemResetWarning,0833.7,5.01,000.00,031.1,025.7,000.0,039.6,031.6,33.0,0002.3,0014.91,0007.68,0006.12
2023-06-22 07:21:00,SystemResetWarning,0833.8,4.99,000.00,031.0,026.2,000.0,039.5,031.6,33.4,0002.1,0014.70,0007.55,0006.03
2023-06-22 07:22:00,SystemResetWarning,0833.7,5.00,000.00,031.0,026.6,000.0,039.5,031.6,33.7,0002.0,0014.80,0007.51,0005.98
2023-06-22 07:23:00,SystemResetWarning,0833.7,5.00,000.00,030.9,027.0,000.0,039.5,031.6,32.6,0001.4,0014.74,0007.41,0005.90
2023-06-22 07:24:00,SystemResetWarning,0833.8,4.99,000.00,030.9,027.3,000.0,039.4,031.6,32.4,0001.0,0014.78,0007.36,0005.84
2023-06-22 07:25:00,SystemResetWarning,0833.8,5.00,000.00,030.9,027.5,000.0,039.4,031.7,32.7,0001.0,0014.62,0007.27,0005.79
2023-06-22 07:26:00,SystemResetWarning,0833.8,5.01,000.00,030.8,027.7,000.0,039.4,031.7,32.9,0001.0,0014.08,0007.07,0005.68
2023-06-22 07:27:00,SystemResetWarning,0833.8,5.01,000.00,030.8,027.9,000.0,039.4,031.7,32.8,0000.8,0013.31,0006.91,0005.56
2023-06-22 07:28:00,SystemResetWarning,0833.8,5.00,000.00,030.8,028.0,000.0,039.4,031.7,32.6,0000.6,0013.11,0006.80,0005.45
2023-06-22 07:29:00,SystemResetWarning,0833.7,5.00,000.00,030.8,028.1,000.0,039.3,031.7,32.4,0000.6,0012.89,0006.68,0005.34
2023-06-22 07:30:00,SystemResetWarning,0833.7,5.00,000.00,030.8,028.2,000.0,039.3,031.7,32.3,0001.2,0012.39,0006.50,0005.24
2023-06-22 07:31:00,SystemResetWarning,0833.7,5.00,000.00,030.7,028.3,000.0,039.3,031.8,32.7,0001.1,0011.90,0006.35,0005.12
2023-06-22 07:32:00,SystemResetWarning,0833.7,5.00,000.00,030.7,028.3,000.0,039.3,031.7,32.7,0001.3,0011.63,0006.16,0005.01
2023-06-22 07:33:00,SystemResetWarning,0833.7,5.00,000.00,030.7,028.4,000.0,039.3,031.7,32.9,0001.7,0011.55,0005.97,0004.90
2023-06-22 07:34:00,SystemResetWarning,0833.7,5.00,000.00,030.7,028.4,000.0,039.3,031.8,32.9,0001.6,0011.46,0005.91,0004.84
2023-06-22 07:35:00,SystemResetWarning,0833.7,5.01,000.00,030.7,028.4,000.0,039.3,031.7,32.5,0002.0,0011.05,0005.76,0004.76
2023-06-22 07:36:00,SystemResetWarning,0833.7,5.00,000.00,030.7,028.5,000.0,039.3,031.8,32.1,0002.5,0010.67,0005.58,0004.64
2023-06-22 07:37:00,SystemResetWarning,0833.7,4.99,000.00,030.7,028.5,000.0,039.3,031.8,32.5,0002.4,0011.06,0005.56,0004.61
2023-06-22 07:38:00,SystemResetWarning,0833.7,4.99,000.00,030.7,028.5,000.0,039.2,031.8,32.5,0000.0,0010.93,0005.49,0004.59
2023-06-22 07:39:00,SystemResetWarning,0833.7,4.99,000.00,030.7,028.5,000.0,039.2,031.8,32.5,0000.0,0010.73,0005.40,0004.55
2023-06-22 07:40:00,SystemResetWarning,0833.7,5.00,000.00,030.7,028.5,000.0,039.2,031.7,32.5,0000.0,0010.67,0005.35,0004.54
2023-06-22 07:41:00,SystemResetWarning,0833.7,5.01,000.00,030.7,028.5,000.0,039.2,031.8,32.8,0000.0,0010.39,0005.32,0004.50
2023-06-22 07:42:00,SystemResetWarning,0833.7,5.00,000.00,030.7,028.6,000.0,039.2,031.8,33.0,0000.0,0010.05,0005.28,0004.49
2023-06-22 07:43:00,SystemResetWarning,0833.7,5.00,000.00,030.7,028.6,000.0,039.2,031.8,32.9,0000.0,0009.92,0005.25,0004.47
2023-06-22 07:44:00,SystemResetWarning,0833.6,5.00,000.00,030.6,028.6,000.0,039.2,031.8,32.8,0000.0,0009.62,0005.25,0004.46
2023-06-22 07:45:00,SystemResetWarning,0833.6,4.99,000.00,030.6,028.6,000.0,039.2,031.9,32.8,0000.0,0009.26,0005.24,0004.45
2023-06-22 07:46:00,SystemResetWarning,0833.5,4.99,000.00,030.6,028.6,000.0,039.2,031.9,32.7,0000.0,0009.22,0005.25,0004.44
2023-06-22 07:47:00,SystemResetWarning,0833.6,5.00,000.00,030.6,028.7,000.0,039.2,031.9,33.0,0000.0,0009.13,0005.22,0004.41
2023-06-22 07:48:00,SystemResetWarning,0833.5,5.01,000.00,030.6,028.7,000.0,039.2,031.9,33.1,0000.0,0008.90,0005.19,0004.40
2023-06-22 07:49:00,SystemResetWarning,0833.5,5.01,000.00,030.6,028.7,000.0,039.2,031.9,33.1,0000.0,0009.07,0005.23,0004.40
2023-06-22 07:50:00,SystemResetWarning,0833.4,5.00,000.00,030.6,028.7,000.0,039.2,031.9,33.1,0000.0,0009.21,0005.29,0004.41
2023-06-22 07:51:00,SystemResetWarning,0833.4,5.00,000.00,030.6,028.7,000.0,039.2,031.9,33.0,0000.0,0009.10,0005.27,0004.41
2023-06-22 07:52:00,SystemResetWarning,0833.4,4.99,000.00,030.6,028.7,000.0,039.2,031.9,33.0,0000.0,0009.06,0005.25,0004.41
2023-06-22 07:53:00,SystemResetWarning,0833.4,4.99,000.00,030.6,028.7,000.0,039.2,031.9,32.8,0000.0,0009.20,0005.28,0004.42
2023-06-22 07:54:00,SystemResetWarning,0833.4,5.00,000.00,030.6,028.7,000.0,039.2,031.9,32.8,0000.0,0009.49,0005.31,0004.42
2023-06-22 07:55:00,SystemResetWarning,0833.4,5.00,000.00,030.6,028.7,000.0,039.2,031.9,32.9,0000.0,0009.64,0005.29,0004.41
2023-06-22 07:56:00,SystemResetWarning,0833.4,5.01,000.00,030.6,028.7,000.0,039.2,031.9,32.8,0000.0,0009.82,0005.33,0004.40
2023-06-22 07:57:00,SystemResetWarning,0833.5,5.00,000.00,030.6,028.7,000.0,039.2,031.9,32.9,0000.0,0009.67,0005.27,0004.39
2023-06-22 07:58:00,SystemResetWarning,0833.7,5.00,000.00,030.6,028.7,000.0,039.2,031.9,32.8,0000.0,0009.64,0005.26,0004.39
2023-06-22 07:59:00,SystemResetWarning,0833.7,5.00,000.00,030.6,028.7,000.0,039.2,031.9,33.0,0000.0,0009.88,0005.26,0004.37
